DKH1097 ZPPP-ZYHB

Flight info

Callsign DKH1097
Flight time N/A
Altitude 35100
Route DADOL4Q DADOL W144 IGNAK W179 WFX W81 APIMI W275 NSH G212 SOTMU B339 HUR B334 TGO G212 RUSBO W203 PIGAM PIG08A
Aircraft A321/M-SDE3FGHIRWY/LB1

Departure

Time N/A
Airport Kunming Changshui International Airport (ZPPP)

Arrival

Time 2026-04-23 10:27
Airport Harbin Taiping International Airport (ZYHB)
Time Latitude Longitude Altitude Speed Heading
2026-04-23 07:57 35.89400 109.57311 35028 ft 464 kts 50°
2026-04-23 07:58 35.93189 109.63757 35031 ft 464 kts 50°
2026-04-23 07:58 35.96961 109.70205 35012 ft 463 kts 50°
2026-04-23 07:59 36.00733 109.76662 35012 ft 463 kts 51°
2026-04-23 07:59 36.04494 109.83122 35028 ft 463 kts 51°
2026-04-23 08:00 36.08255 109.89588 35016 ft 463 kts 51°
2026-04-23 08:00 36.11992 109.96008 35015 ft 463 kts 51°
2026-04-23 08:01 36.15744 110.02489 35011 ft 463 kts 51°
2026-04-23 08:01 36.19488 110.08964 35011 ft 463 kts 51°
2026-04-23 08:02 36.23233 110.15454 35021 ft 463 kts 51°
2026-04-23 08:02 36.26965 110.21942 35012 ft 462 kts 51°
2026-04-23 08:03 36.30700 110.28436 35004 ft 462 kts 51°
2026-04-23 08:03 36.34421 110.34940 35002 ft 462 kts 51°
2026-04-23 08:04 36.38136 110.41438 35004 ft 462 kts 51°
2026-04-23 08:04 36.41857 110.47954 35010 ft 462 kts 51°
2026-04-23 08:05 36.45567 110.54460 34999 ft 462 kts 52°
2026-04-23 08:05 36.48646 110.59881 34993 ft 462 kts 52°
2026-04-23 08:06 36.52962 110.67502 34992 ft 461 kts 52°
2026-04-23 08:06 36.56036 110.72916 34988 ft 461 kts 52°
2026-04-23 08:07 36.59737 110.79444 35006 ft 461 kts 52°
2026-04-23 08:07 36.64019 110.87030 35003 ft 461 kts 52°
2026-04-23 08:08 36.67691 110.93567 35002 ft 461 kts 52°
2026-04-23 08:08 36.70778 110.99042 35000 ft 460 kts 50°
2026-04-23 08:09 36.74957 111.05009 35018 ft 457 kts 45°
2026-04-23 08:09 36.79189 111.10854 35016 ft 457 kts 45°
2026-04-23 08:10 36.83431 111.16748 35030 ft 456 kts 45°
2026-04-23 08:10 36.89785 111.25596 35021 ft 456 kts 45°
2026-04-23 08:11 36.94022 111.31505 35019 ft 456 kts 45°
2026-04-23 08:11 36.98252 111.37413 35016 ft 456 kts 45°
2026-04-23 08:12 37.02481 111.43320 35020 ft 456 kts 45°
2026-04-23 08:12 37.06710 111.49245 35013 ft 456 kts 45°
2026-04-23 08:13 37.10930 111.55178 35012 ft 456 kts 45°
2026-04-23 08:13 37.15140 111.61113 35022 ft 455 kts 45°
2026-04-23 08:14 37.19258 111.66905 35014 ft 455 kts 45°
2026-04-23 08:14 37.23461 111.72825 35012 ft 454 kts 45°
2026-04-23 08:15 37.27142 111.79271 35016 ft 459 kts 60°
2026-04-23 08:15 37.30039 111.86419 35021 ft 459 kts 60°
2026-04-23 08:16 37.32954 111.93531 35015 ft 458 kts 60°
2026-04-23 08:16 37.35881 112.00643 35012 ft 458 kts 60°
2026-04-23 08:17 37.38791 112.07763 35003 ft 458 kts 60°
2026-04-23 08:17 37.41684 112.14892 35005 ft 458 kts 60°
2026-04-23 08:18 37.44575 112.22032 35011 ft 458 kts 60°
2026-04-23 08:18 37.47473 112.29166 35010 ft 458 kts 60°
2026-04-23 08:19 37.50367 112.36300 35006 ft 457 kts 60°
2026-04-23 08:19 37.53242 112.43438 35004 ft 457 kts 60°
2026-04-23 08:20 37.56110 112.50588 35004 ft 457 kts 60°
2026-04-23 08:20 37.58981 112.57740 35011 ft 457 kts 60°
2026-04-23 08:21 37.61853 112.64891 35012 ft 457 kts 60°
2026-04-23 08:21 37.64713 112.72033 35012 ft 456 kts 60°
2026-04-23 08:22 37.67573 112.79175 35016 ft 456 kts 60°
2026-04-23 08:22 37.70432 112.86327 35008 ft 456 kts 60°
2026-04-23 08:23 37.73273 112.93485 35015 ft 456 kts 60°
2026-04-23 08:23 37.76099 113.00606 35014 ft 455 kts 60°
2026-04-23 08:24 37.78957 113.07801 35017 ft 455 kts 60°
2026-04-23 08:24 37.81790 113.14962 35001 ft 455 kts 60°
2026-04-23 08:25 37.84613 113.22125 34998 ft 455 kts 60°
2026-04-23 08:25 37.87435 113.29299 35000 ft 456 kts 60°
2026-04-23 08:26 37.90243 113.36473 35001 ft 455 kts 61°
2026-04-23 08:26 37.93067 113.43675 35002 ft 455 kts 60°
2026-04-23 08:27 37.95874 113.50850 34993 ft 455 kts 61°
2026-04-23 08:27 37.98668 113.58047 34989 ft 455 kts 61°
2026-04-23 08:28 38.01456 113.65250 34990 ft 455 kts 61°
2026-04-23 08:28 38.04239 113.72455 34994 ft 455 kts 61°
2026-04-23 08:29 38.07017 113.79655 34993 ft 454 kts 61°
2026-04-23 08:29 38.09789 113.86866 34991 ft 454 kts 61°
2026-04-23 08:30 38.12556 113.94068 34981 ft 454 kts 61°
2026-04-23 08:30 38.15317 114.01286 34981 ft 454 kts 61°
2026-04-23 08:31 38.18062 114.08494 34992 ft 453 kts 62°
2026-04-23 08:31 38.20813 114.15702 34983 ft 453 kts 61°
2026-04-23 08:32 38.23582 114.22900 34983 ft 453 kts 61°
2026-04-23 08:32 38.26337 114.30101 34980 ft 453 kts 61°
2026-04-23 08:33 38.29080 114.37319 34984 ft 453 kts 62°
2026-04-23 08:33 38.31816 114.44531 34993 ft 452 kts 61°
2026-04-23 08:34 38.34545 114.51735 34989 ft 451 kts 62°
2026-04-23 08:34 38.37243 114.58875 34983 ft 450 kts 62°
2026-04-23 08:35 38.39957 114.66067 34982 ft 450 kts 62°
2026-04-23 08:35 38.42658 114.73263 34979 ft 450 kts 62°
2026-04-23 08:36 38.45317 114.80396 34980 ft 449 kts 62°
2026-04-23 08:36 38.48007 114.87575 34979 ft 449 kts 62°
2026-04-23 08:37 38.50705 114.94767 34980 ft 449 kts 62°
2026-04-23 08:37 38.53381 115.01960 34984 ft 449 kts 62°
2026-04-23 08:38 38.56055 115.09178 34985 ft 450 kts 62°
2026-04-23 08:38 38.58715 115.16409 34992 ft 449 kts 62°
2026-04-23 08:39 38.61355 115.23624 34995 ft 448 kts 62°
2026-04-23 08:39 38.64008 115.30834 34994 ft 447 kts 62°
2026-04-23 08:40 38.66665 115.38038 34983 ft 448 kts 62°
2026-04-23 08:40 38.69309 115.45250 34989 ft 448 kts 62°
2026-04-23 08:41 38.71960 115.52457 34992 ft 446 kts 59°
2026-04-23 08:41 38.75085 115.59299 34991 ft 444 kts 57°
2026-04-23 08:42 38.78226 115.66117 34995 ft 444 kts 57°
2026-04-23 08:42 38.81356 115.72940 34979 ft 445 kts 57°
2026-04-23 08:43 38.84493 115.79783 34996 ft 444 kts 57°
2026-04-23 08:43 38.87618 115.86612 34992 ft 443 kts 57°
2026-04-23 08:44 38.90735 115.93431 34991 ft 443 kts 57°
2026-04-23 08:44 38.93845 116.00247 34991 ft 443 kts 57°
2026-04-23 08:45 38.96953 116.07089 34996 ft 443 kts 57°
2026-04-23 08:45 39.00000 116.13830 35002 ft 442 kts 57°
2026-04-23 08:46 39.03115 116.20694 34990 ft 442 kts 57°
2026-04-23 08:46 39.05690 116.26372 34999 ft 441 kts 57°
2026-04-23 08:47 39.08767 116.33198 34975 ft 442 kts 57°
2026-04-23 08:47 39.11767 116.39878 34988 ft 441 kts 57°
2026-04-23 08:48 39.14830 116.46723 34994 ft 441 kts 57°
2026-04-23 08:48 39.18131 116.53339 34986 ft 436 kts 46°
2026-04-23 08:49 39.22742 116.58283 34984 ft 430 kts 27°
2026-04-23 08:49 39.28237 116.61202 34985 ft 427 kts 18°
2026-04-23 08:50 39.33831 116.63792 34987 ft 427 kts 18°
2026-04-23 08:50 39.39421 116.66409 34975 ft 427 kts 18°
2026-04-23 08:51 39.45012 116.69026 34975 ft 427 kts 18°
2026-04-23 08:51 39.50590 116.71636 34975 ft 426 kts 18°
2026-04-23 08:52 39.56165 116.74253 34977 ft 426 kts 18°
2026-04-23 08:52 39.61736 116.76862 34975 ft 426 kts 18°
2026-04-23 08:53 39.67264 116.79452 34970 ft 425 kts 18°
2026-04-23 08:53 39.72828 116.82074 34970 ft 425 kts 18°
2026-04-23 08:54 39.78442 116.84440 34968 ft 423 kts
2026-04-23 08:54 39.84276 116.84585 34968 ft 420 kts 351°
2026-04-23 08:55 39.90056 116.83399 34970 ft 421 kts 351°
2026-04-23 08:55 39.95852 116.82262 34966 ft 421 kts 351°
2026-04-23 08:56 40.01643 116.81128 34964 ft 421 kts 351°
2026-04-23 08:56 40.07435 116.79970 34962 ft 420 kts 351°
2026-04-23 08:57 40.13214 116.78805 34967 ft 420 kts 351°
2026-04-23 08:57 40.18986 116.77648 34965 ft 420 kts 351°
2026-04-23 08:58 40.24774 116.76493 34965 ft 420 kts 351°
2026-04-23 08:58 40.30552 116.75328 34963 ft 420 kts 351°
2026-04-23 08:59 40.36381 116.75256 34960 ft 421 kts
2026-04-23 08:59 40.42216 116.76000 34961 ft 421 kts
2026-04-23 09:00 40.48049 116.76721 34958 ft 421 kts
2026-04-23 09:00 40.53872 116.77440 34953 ft 420 kts
2026-04-23 09:01 40.59689 116.78169 34952 ft 420 kts
2026-04-23 09:01 40.65514 116.78904 34939 ft 421 kts
2026-04-23 09:02 40.71353 116.79648 34933 ft 422 kts
2026-04-23 09:02 40.77192 116.80351 34931 ft 421 kts
2026-04-23 09:03 40.83047 116.80712 34925 ft 421 kts 360°
2026-04-23 09:03 40.88912 116.80906 34926 ft 421 kts 360°
2026-04-23 09:04 40.94781 116.81150 34925 ft 422 kts
2026-04-23 09:04 41.00648 116.81461 34928 ft 422 kts
2026-04-23 09:05 41.06513 116.81789 34922 ft 422 kts
2026-04-23 09:05 41.12380 116.82104 34923 ft 422 kts
2026-04-23 09:06 41.18204 116.82409 34926 ft 421 kts 360°
2026-04-23 09:06 41.24062 116.82718 34913 ft 421 kts 360°
2026-04-23 09:07 41.29926 116.83022 34905 ft 422 kts 360°
2026-04-23 09:07 41.35786 116.83320 34905 ft 421 kts 360°
2026-04-23 09:08 41.41647 116.83625 34906 ft 422 kts 360°
2026-04-23 09:08 41.47515 116.83937 34890 ft 422 kts 360°
2026-04-23 09:09 41.53378 116.84249 34878 ft 422 kts 360°
2026-04-23 09:09 41.59243 116.84557 34884 ft 422 kts 359°
2026-04-23 09:10 41.67868 116.86715 34860 ft 431 kts 24°
2026-04-23 09:10 41.70379 116.88942 34867 ft 436 kts 37°
2026-04-23 09:11 41.72479 116.91900 34871 ft 442 kts 50°
2026-04-23 09:11 41.74057 116.95451 34866 ft 447 kts 61°
2026-04-23 09:11 41.75373 116.99224 34861 ft 448 kts 61°
2026-04-23 09:12 41.78008 117.06801 34851 ft 449 kts 62°
2026-04-23 09:12 41.80624 117.14382 34862 ft 449 kts 62°
2026-04-23 09:13 41.83260 117.22005 34861 ft 450 kts 62°
2026-04-23 09:13 41.85887 117.29617 34860 ft 450 kts 62°
2026-04-23 09:14 41.88513 117.37250 34870 ft 450 kts 62°
2026-04-23 09:14 41.91129 117.44893 34877 ft 451 kts 62°
2026-04-23 09:15 41.93741 117.52541 34873 ft 451 kts 62°
2026-04-23 09:15 41.96360 117.60206 34876 ft 451 kts 61°
2026-04-23 09:16 41.98971 117.67893 34867 ft 452 kts 62°
2026-04-23 09:16 42.01578 117.75583 34871 ft 452 kts 61°
2026-04-23 09:17 42.04183 117.83278 34864 ft 452 kts 61°
2026-04-23 09:17 42.06788 117.90997 34876 ft 453 kts 61°
2026-04-23 09:18 42.09387 117.98723 34858 ft 454 kts 62°
2026-04-23 09:18 42.11981 118.06470 34861 ft 454 kts 62°
2026-04-23 09:19 42.14583 118.14231 34859 ft 455 kts 62°
2026-04-23 09:19 42.17181 118.22012 34861 ft 456 kts 62°
2026-04-23 09:20 42.19812 118.29780 34848 ft 455 kts 60°
2026-04-23 09:20 42.22613 118.37443 34843 ft 455 kts 59°
2026-04-23 09:21 42.25455 118.45076 34831 ft 455 kts 59°
2026-04-23 09:21 42.28255 118.52744 34853 ft 456 kts 59°
2026-04-23 09:22 42.31030 118.60457 34829 ft 456 kts 59°
2026-04-23 09:22 42.33788 118.68170 34822 ft 457 kts 59°
2026-04-23 09:23 42.36557 118.75907 34810 ft 457 kts 59°
2026-04-23 09:23 42.39337 118.83657 34814 ft 458 kts 59°
2026-04-23 09:24 42.42110 118.91411 34812 ft 458 kts 59°
2026-04-23 09:24 42.44875 118.99187 34803 ft 458 kts 59°
2026-04-23 09:25 42.47634 119.06961 34797 ft 458 kts 60°
2026-04-23 09:25 42.50382 119.14740 34803 ft 458 kts 60°
2026-04-23 09:26 42.53122 119.22531 34792 ft 458 kts 60°
2026-04-23 09:26 42.55791 119.30112 34790 ft 458 kts 60°
2026-04-23 09:27 42.58438 119.37637 34797 ft 457 kts 60°
2026-04-23 09:27 42.61165 119.45441 34810 ft 456 kts 60°
2026-04-23 09:28 42.63879 119.53229 34792 ft 457 kts 60°
2026-04-23 09:28 42.66601 119.61036 34784 ft 457 kts 60°
2026-04-23 09:29 42.68863 119.67532 34785 ft 457 kts 60°
2026-04-23 09:29 42.72027 119.76668 34781 ft 458 kts 60°
2026-04-23 09:30 42.74277 119.83197 34782 ft 458 kts 60°
2026-04-23 09:30 42.76974 119.91044 34783 ft 458 kts 60°
2026-04-23 09:31 42.79669 119.98910 34777 ft 458 kts 60°
2026-04-23 09:31 42.82364 120.06778 34775 ft 459 kts 60°
2026-04-23 09:32 42.85065 120.14669 34793 ft 459 kts 60°
2026-04-23 09:32 42.87756 120.22574 34792 ft 460 kts 60°
2026-04-23 09:33 42.90448 120.30513 34795 ft 461 kts 60°
2026-04-23 09:33 42.93133 120.38450 34797 ft 461 kts 60°
2026-04-23 09:34 42.95808 120.46395 34800 ft 461 kts 60°
2026-04-23 09:34 42.98509 120.54324 34799 ft 460 kts 59°
2026-04-23 09:35 43.01339 120.62154 34804 ft 459 kts 58°
2026-04-23 09:35 43.04183 120.69963 34803 ft 460 kts 59°
2026-04-23 09:36 43.06986 120.77816 34835 ft 459 kts 59°
2026-04-23 09:36 43.09757 120.85673 34833 ft 458 kts 59°
2026-04-23 09:37 43.12520 120.93526 34835 ft 458 kts 59°
2026-04-23 09:37 43.15283 121.01373 34838 ft 457 kts 59°
2026-04-23 09:38 43.18049 121.09229 34848 ft 458 kts 59°
2026-04-23 09:38 43.20801 121.17079 34844 ft 458 kts 59°
2026-04-23 09:39 43.23553 121.24964 34842 ft 458 kts 59°
2026-04-23 09:39 43.26294 121.32849 34847 ft 458 kts 59°
2026-04-23 09:40 43.29022 121.40706 34861 ft 458 kts 59°
2026-04-23 09:40 43.31766 121.48624 34840 ft 458 kts 59°
2026-04-23 09:41 43.34500 121.56535 34841 ft 459 kts 59°
2026-04-23 09:41 43.37232 121.64459 34853 ft 459 kts 59°
2026-04-23 09:42 43.39955 121.72404 34865 ft 460 kts 59°
2026-04-23 09:42 43.42673 121.80363 34862 ft 461 kts 59°
2026-04-23 09:43 43.45399 121.88350 34868 ft 461 kts 59°
2026-04-23 09:43 43.48104 121.96302 34870 ft 462 kts 59°
2026-04-23 09:44 43.50826 122.04306 34885 ft 462 kts 59°
2026-04-23 09:44 43.53545 122.12331 34879 ft 463 kts 59°
2026-04-23 09:45 43.56384 122.20265 34892 ft 457 kts 52°
2026-04-23 09:45 43.60039 122.27359 34891 ft 453 kts 48°
2026-04-23 09:46 43.63736 122.34408 34909 ft 454 kts 48°
2026-04-23 09:46 43.67415 122.41493 34896 ft 454 kts 48°
2026-04-23 09:47 43.71087 122.48587 34899 ft 454 kts 48°
2026-04-23 09:47 43.74776 122.55691 34896 ft 454 kts 48°
2026-04-23 09:48 43.78458 122.62801 34918 ft 455 kts 48°
2026-04-23 09:48 43.82135 122.69931 34916 ft 456 kts 48°
2026-04-23 09:49 43.85808 122.77087 34915 ft 456 kts 48°
2026-04-23 09:49 43.89482 122.84241 34936 ft 455 kts 48°
2026-04-23 09:50 43.93157 122.91405 34921 ft 456 kts 48°
2026-04-23 09:50 43.96861 122.98547 34920 ft 455 kts 47°
2026-04-23 09:51 44.00624 123.05615 34921 ft 455 kts 47°
2026-04-23 09:51 44.04401 123.12677 34953 ft 456 kts 47°
2026-04-23 09:52 44.08161 123.19780 34941 ft 456 kts 47°
2026-04-23 09:52 44.11906 123.26908 34936 ft 457 kts 47°
2026-04-23 09:53 44.15642 123.34067 34935 ft 457 kts 47°
2026-04-23 09:53 44.19381 123.41227 34940 ft 457 kts 47°
2026-04-23 09:54 44.23114 123.48384 34941 ft 457 kts 47°
2026-04-23 09:54 44.26845 123.55549 34950 ft 456 kts 47°
2026-04-23 09:55 44.30565 123.62720 34971 ft 456 kts 47°
2026-04-23 09:55 44.34280 123.69892 34965 ft 456 kts 47°
2026-04-23 09:56 44.37989 123.77074 34970 ft 456 kts 47°
2026-04-23 09:56 44.41679 123.84215 34967 ft 456 kts 47°
2026-04-23 09:57 44.45385 123.91408 34984 ft 456 kts 47°
2026-04-23 09:57 44.49109 123.98581 34979 ft 455 kts 47°
2026-04-23 09:58 44.52860 124.05731 34976 ft 455 kts 46°
2026-04-23 09:58 44.57218 124.11885 34969 ft 438 kts 28°
2026-04-23 09:59 44.62474 124.15829 34984 ft 425 kts 16°
2026-04-23 09:59 44.65188 124.17505 34863 ft 427 kts 17°
2026-04-23 09:59 44.67885 124.19248 34615 ft 430 kts 21°
2026-04-23 09:59 44.70432 124.21520 34370 ft 438 kts 30°
2026-04-23 10:00 44.72730 124.24389 34127 ft 447 kts 39°
2026-04-23 10:00 44.74717 124.27803 33884 ft 455 kts 47°
2026-04-23 10:00 44.76576 124.31396 33649 ft 455 kts 46°
2026-04-23 10:00 44.78451 124.34993 33380 ft 456 kts 46°
2026-04-23 10:01 44.80328 124.38586 33098 ft 456 kts 46°
2026-04-23 10:01 44.82214 124.42195 32820 ft 457 kts 46°
2026-04-23 10:01 44.84096 124.45808 32561 ft 458 kts 46°
2026-04-23 10:01 44.85979 124.49431 32293 ft 459 kts 47°
2026-04-23 10:02 44.87863 124.53068 32029 ft 460 kts 47°
2026-04-23 10:02 44.89747 124.56712 31793 ft 460 kts 47°
2026-04-23 10:02 44.91632 124.60359 31539 ft 461 kts 47°
2026-04-23 10:02 44.93523 124.64022 31275 ft 462 kts 47°
2026-04-23 10:03 44.95421 124.67703 31024 ft 463 kts 47°
2026-04-23 10:03 44.97319 124.71390 30775 ft 464 kts 47°
2026-04-23 10:03 44.99208 124.75066 30536 ft 465 kts 47°
2026-04-23 10:03 45.01103 124.78766 30284 ft 466 kts 47°
2026-04-23 10:04 45.03009 124.82488 30033 ft 467 kts 48°
2026-04-23 10:04 45.04912 124.86211 29776 ft 467 kts 48°
2026-04-23 10:04 45.06810 124.89930 29496 ft 466 kts 48°
2026-04-23 10:04 45.08695 124.93659 29200 ft 466 kts 51°
2026-04-23 10:05 45.10231 124.97735 28920 ft 473 kts 63°
2026-04-23 10:05 45.11168 125.02225 28645 ft 480 kts 76°
2026-04-23 10:05 45.11461 125.06940 28368 ft 484 kts 88°
2026-04-23 10:05 45.11088 125.11686 28079 ft 486 kts 101°
2026-04-23 10:06 45.10183 125.16286 27842 ft 485 kts 105°
2026-04-23 10:06 45.09226 125.20862 27562 ft 483 kts 105°
2026-04-23 10:06 45.08274 125.25415 27289 ft 481 kts 105°
2026-04-23 10:06 45.07327 125.29944 27039 ft 479 kts 105°
2026-04-23 10:07 45.06385 125.34453 26776 ft 477 kts 105°
2026-04-23 10:07 45.05445 125.38929 26517 ft 474 kts 105°
2026-04-23 10:07 45.04504 125.43396 26262 ft 472 kts 105°
2026-04-23 10:07 45.03567 125.47838 26033 ft 470 kts 105°
2026-04-23 10:08 45.02632 125.52263 25786 ft 471 kts 105°
2026-04-23 10:08 45.01698 125.56684 25536 ft 470 kts 105°
2026-04-23 10:08 45.00761 125.61111 25290 ft 469 kts 105°
2026-04-23 10:09 44.98895 125.69859 24316 ft 462 kts 105°
2026-04-23 10:09 44.97968 125.74183 23732 ft 459 kts 105°
2026-04-23 10:09 44.97044 125.78484 23101 ft 456 kts 105°
2026-04-23 10:09 44.96182 125.82761 22545 ft 449 kts 101°
2026-04-23 10:10 44.95743 125.87067 22016 ft 440 kts 90°
2026-04-23 10:10 44.95628 125.89913 21645 ft 436 kts 90°
2026-04-23 10:10 44.95390 125.95574 20958 ft 428 kts 90°
2026-04-23 10:10 44.95205 125.99742 20457 ft 423 kts 90°
2026-04-23 10:11 44.95079 126.02470 20117 ft 420 kts 91°
2026-04-23 10:11 44.94841 126.07890 19445 ft 413 kts 88°
2026-04-23 10:11 44.95185 126.11838 18942 ft 400 kts 68°
2026-04-23 10:11 44.95906 126.14250 18613 ft 390 kts 55°
2026-04-23 10:12 44.98198 126.17955 17878 ft 372 kts 31°
2026-04-23 10:12 44.99672 126.19204 17486 ft 363 kts 19°
2026-04-23 10:12 45.02039 126.20217 16953 ft 350 kts
2026-04-23 10:12 45.04428 126.20163 16316 ft 340 kts 343°
2026-04-23 10:13 45.07128 126.18211 15670 ft 327 kts 316°
2026-04-23 10:13 45.08138 126.16606 15363 ft 323 kts 303°
2026-04-23 10:13 45.09047 126.13735 14893 ft 321 kts 284°
2026-04-23 10:13 45.09327 126.10615 14425 ft 319 kts 279°
2026-04-23 10:14 45.09771 126.07555 13960 ft 315 kts 287°
2026-04-23 10:14 45.10356 126.04582 13455 ft 313 kts 286°
2026-04-23 10:14 45.10958 126.01589 12634 ft 320 kts 287°
2026-04-23 10:14 45.11579 125.98553 12035 ft 321 kts 287°
2026-04-23 10:15 45.12205 125.95521 11504 ft 319 kts 287°
2026-04-23 10:15 45.12828 125.92510 10984 ft 318 kts 287°
2026-04-23 10:15 45.13449 125.89512 10467 ft 317 kts 287°
2026-04-23 10:15 45.14284 125.86645 10009 ft 314 kts 299°
2026-04-23 10:16 45.15493 125.84157 9873 ft 301 kts 309°
2026-04-23 10:16 45.16794 125.81919 9741 ft 288 kts 308°
2026-04-23 10:16 45.18206 125.80010 9600 ft 277 kts 327°
2026-04-23 10:16 45.20005 125.79149 9348 ft 275 kts 353°
2026-04-23 10:17 45.21865 125.79549 8967 ft 279 kts 20°
2026-04-23 10:17 45.23495 125.81104 8668 ft 277 kts 37°
2026-04-23 10:17 45.24928 125.82781 8525 ft 262 kts 36°
2026-04-23 10:17 45.26307 125.84386 8172 ft 253 kts 36°
2026-04-23 10:18 45.27685 125.85895 7911 ft 248 kts 33°
2026-04-23 10:18 45.29095 125.87301 7606 ft 246 kts 31°
2026-04-23 10:18 45.30501 125.88661 7302 ft 244 kts 32°
2026-04-23 10:18 45.31907 125.90016 6959 ft 244 kts 32°
2026-04-23 10:19 45.33307 125.91377 6654 ft 244 kts 33°
2026-04-23 10:19 45.34689 125.92768 6335 ft 243 kts 35°
2026-04-23 10:19 45.36012 125.94245 6069 ft 240 kts 37°
2026-04-23 10:19 45.37293 125.95740 5785 ft 236 kts 38°
2026-04-23 10:20 45.38554 125.97227 5486 ft 235 kts 39°
2026-04-23 10:20 45.39822 125.98744 4968 ft 249 kts 40°
2026-04-23 10:20 45.41196 126.00374 4269 ft 263 kts 40°
2026-04-23 10:20 45.42640 126.02054 3567 ft 272 kts 41°
2026-04-23 10:21 45.44087 126.03729 3093 ft 258 kts 41°
2026-04-23 10:21 45.45398 126.05246 2986 ft 228 kts 42°
2026-04-23 10:21 45.46560 126.06596 3004 ft 206 kts 42°
2026-04-23 10:21 45.47644 126.07858 3010 ft 195 kts 42°
2026-04-23 10:22 45.48619 126.08990 3008 ft 167 kts 43°
2026-04-23 10:22 45.49466 126.09976 3022 ft 148 kts 43°
2026-04-23 10:22 45.50224 126.10860 3001 ft 140 kts 44°
2026-04-23 10:22 45.50966 126.11727 2995 ft 138 kts 44°
2026-04-23 10:23 45.51699 126.12582 2899 ft 137 kts 44°
2026-04-23 10:23 45.52432 126.13437 2754 ft 136 kts 44°
2026-04-23 10:23 45.53162 126.14288 2585 ft 134 kts 44°
2026-04-23 10:23 45.53883 126.15130 2408 ft 133 kts 43°
2026-04-23 10:24 45.54600 126.15967 2226 ft 133 kts 43°
2026-04-23 10:24 45.55313 126.16800 2052 ft 132 kts 44°
2026-04-23 10:24 45.56022 126.17628 1869 ft 132 kts 44°
2026-04-23 10:24 45.56732 126.18456 1693 ft 131 kts 44°
2026-04-23 10:25 45.57444 126.19289 1505 ft 133 kts 43°
2026-04-23 10:25 45.58157 126.20121 1321 ft 132 kts 43°
2026-04-23 10:25 45.58866 126.20951 1117 ft 133 kts 42°
2026-04-23 10:25 45.59593 126.21802 935 ft 136 kts 41°
2026-04-23 10:26 45.60321 126.22653 754 ft 134 kts 42°
2026-04-23 10:26 45.61037 126.23495 591 ft 132 kts 40°
2026-04-23 10:26 45.61749 126.24317 460 ft 130 kts 39°
2026-04-23 10:26 45.62258 126.24921 455 ft 52 kts 39°
2026-04-23 10:27 45.62477 126.25095 455 ft 31 kts 16°
2026-04-23 10:27 45.62625 126.25091 455 ft 10 kts 313°
2026-04-23 10:27 45.62623 126.25056 456 ft 3 kts 249°
2026-04-23 10:27 45.62603 126.25013 456 ft 8 kts 226°
2026-04-23 10:28 45.62546 126.24949 455 ft 11 kts 223°
2026-04-23 10:28 45.62490 126.24879 456 ft 10 kts 220°
2026-04-23 10:28 45.62439 126.24821 456 ft 9 kts 220°
2026-04-23 10:28 45.62396 126.24769 458 ft 7 kts 220°
2026-04-23 10:29 45.62342 126.24704 457 ft 15 kts 220°
2026-04-23 10:29 45.62259 126.24611 457 ft 15 kts 217°
2026-04-23 10:29 45.62184 126.24525 458 ft 13 kts 220°
2026-04-23 10:29 45.62116 126.24442 460 ft 12 kts 220°
2026-04-23 10:30 45.62087 126.24348 460 ft 10 kts 296°
2026-04-23 10:30 45.62094 126.24268 460 ft 9 kts 246°
2026-04-23 10:30 45.62053 126.24218 461 ft 7 kts 218°
2026-04-23 10:30 45.61991 126.24148 460 ft 13 kts 218°
2026-04-23 10:31 45.61926 126.24072 462 ft 11 kts 220°
2026-04-23 10:31 45.61913 126.23984 462 ft 9 kts 296°
2026-04-23 10:31 45.61949 126.23912 462 ft 8 kts 289°
2026-04-23 10:31 45.61927 126.23861 461 ft 6 kts 221°
2026-04-23 10:32 45.61921 126.23853 462 ft 0 kts 221°